Location: Noordwijk
(52.2400°N, 4.4500°E)
Time: 23:03:04
(UTC+00:00)

CAS-4A - Pass Details

Date: 08 December 2022
Orbit: 514 x 531 km, 43.0° (Epoch: 05 February)

Event Time Altitude Azimuth Distance (km) Brightness Sun altitude
Rises 06:43:22 0° 247° (WSW) 2,662 ? -7.9°
Reaches altitude 10° 06:45:56 10° 233° (SW) 1,776 ? -7.5°
Maximum altitude 06:49:08 22° 181° (S) 1,179 ? -7.1°
Drops below altitude 10° 06:52:20 10° 129° (SE) 1,783 ? -6.7°
Sets 06:54:55 0° 114° (ESE) 2,675 ? -6.3°
